Location: *
(43.9905°S, 176.4941°W)
Time: 10:05:17
(UTC+00:00)

Cosmos 2082 Rocket - Pass Details

Date: 08 December 2019
Orbit: 834 x 852 km, 71.0° (Epoch: 18 January)

Event Time Altitude Azimuth Distance (km) Brightness Sun altitude
Rises 08:55:20 0° 208° (SSW) 3,445 7.2 -13.6°
Reaches altitude 10° 08:57:48 10° 210° (SSW) 2,505 6.1 -13.9°
Maximum altitude 09:03:31 68° 291° (WNW) 925 2.4 -14.5°
Enters shadow 09:07:41 19° 10° (N) 1,930 3.5 -15.0°
